When you browse on this site, cookies collect data to enhance your experience and personalize the content and advertising you see.
Visit our Privacy Policy to learn more. By continuing to use the site, you agree to this use of cookies and data.
  • In Österreich
  • Länderverzeichnis
  • Für 7 Tage
  • Wassertemperatur
  • Wetterkarte
  • News
  • Widgets
  • user-avatar
    Anmelden

    Stündliche Wetter Varshavka

    Heute, 18 November, Montag

    Zeit Temperatur Niederschläge Wind Luftdruck Luftfeuchtigkeit
    00:00 -1°C° 0 mm 3 m/S 761 mmHg 91%
    01:00 -1°C° 0 mm 2 m/S 761 mmHg 91%
    02:00 -1°C° 0 mm 2 m/S 761 mmHg 91%
    03:00 -1°C° 0 mm 2 m/S 761 mmHg 91%
    04:00 -1°C° 0 mm 2 m/S 761 mmHg 93%
    05:00 -1°C° 0 mm 2 m/S 761 mmHg 93%
    06:00 -1°C° 0 mm 2 m/S 761 mmHg 93%
    07:00 -1°C° 0 mm 2 m/S 760 mmHg 93%
    08:00 -1°C° 0 mm 2 m/S 761 mmHg 92%
    09:00 +1°C° 0 mm 2 m/S 761 mmHg 91%
    10:00 +1°C° 0 mm 2 m/S 761 mmHg 90%
    11:00 0°C° 0 mm 3 m/S 760 mmHg 90%
    12:00 0°C° 0 mm 3 m/S 760 mmHg 90%
    13:00 0°C° 0 mm 3 m/S 760 mmHg 89%
    14:00 0°C° 0 mm 3 m/S 760 mmHg 90%
    15:00 0°C° 0 mm 3 m/S 759 mmHg 90%
    16:00 0°C° 0 mm 3 m/S 759 mmHg 90%
    17:00 0°C° 0 mm 3 m/S 759 mmHg 91%
    18:00 0°C° 0 mm 3 m/S 759 mmHg 91%
    19:00 0°C° 0 mm 3 m/S 758 mmHg 92%
    20:00 0°C° 0 mm 3 m/S 758 mmHg 93%
    21:00 0°C° 0 mm 3 m/S 758 mmHg 94%
    22:00 -1°C° 0 mm 4 m/S 757 mmHg 95%
    23:00 0°C° 0.2 mm 3 m/S 757 mmHg 95%

    Morgen, 19 November, Dienstag

    Zeit Temperatur Niederschläge Wind Luftdruck Luftfeuchtigkeit
    00:00 0°C° 0.2 mm 3 m/S 757 mmHg 94%
    01:00 +1°C° 0.2 mm 3 m/S 756 mmHg 94%
    02:00 0°C° 0.3 mm 4 m/S 756 mmHg 94%
    03:00 0°C° 0.3 mm 4 m/S 756 mmHg 94%
    04:00 0°C° 0.3 mm 4 m/S 756 mmHg 94%
    05:00 0°C° 0 mm 4 m/S 756 mmHg 94%
    06:00 0°C° 0 mm 4 m/S 756 mmHg 95%
    07:00 +1°C° 0 mm 4 m/S 755 mmHg 95%
    08:00 +1°C° 0 mm 4 m/S 756 mmHg 94%
    09:00 +1°C° 0 mm 4 m/S 756 mmHg 93%
    10:00 +1°C° 0 mm 5 m/S 756 mmHg 92%
    11:00 +1°C° 0 mm 4 m/S 756 mmHg 92%
    12:00 +1°C° 0 mm 4 m/S 756 mmHg 91%
    13:00 0°C° 0 mm 4 m/S 757 mmHg 91%
    14:00 0°C° 0 mm 5 m/S 757 mmHg 89%
    15:00 -1°C° 0 mm 5 m/S 757 mmHg 86%
    16:00 -1°C° 0 mm 5 m/S 758 mmHg 83%
    17:00 -2°C° 0 mm 5 m/S 758 mmHg 82%
    18:00 -5°C° 0 mm 5 m/S 759 mmHg 81%
    19:00 -7°C° 0 mm 5 m/S 759 mmHg 80%
    20:00 -7°C° 0 mm 5 m/S 760 mmHg 78%
    21:00 -8°C° 0 mm 5 m/S 760 mmHg 77%
    22:00 -10°C° 0 mm 5 m/S 761 mmHg 75%
    23:00 -11°C° 0 mm 6 m/S 762 mmHg 73%

    übermorgen, 20 November, Mittwoch

    Zeit Temperatur Niederschläge Wind Luftdruck Luftfeuchtigkeit
    00:00 -11°C° 0 mm 6 m/S 762 mmHg 71%
    01:00 -12°C° 0 mm 6 m/S 763 mmHg 70%
    02:00 -14°C° 0 mm 6 m/S 763 mmHg 65%
    03:00 -14°C° 0 mm 6 m/S 764 mmHg 61%
    04:00 -14°C° 0 mm 5 m/S 764 mmHg 57%
    05:00 -15°C° 0 mm 6 m/S 765 mmHg 56%
    06:00 -16°C° 0 mm 6 m/S 765 mmHg 54%
    07:00 -16°C° 0 mm 6 m/S 766 mmHg 52%
    08:00 -16°C° 0 mm 6 m/S 766 mmHg 50%
    09:00 -16°C° 0 mm 6 m/S 767 mmHg 48%
    10:00 -16°C° 0 mm 6 m/S 768 mmHg 46%
    11:00 -15°C° 0 mm 5 m/S 768 mmHg 45%
    12:00 -14°C° 0 mm 5 m/S 768 mmHg 44%
    13:00 -14°C° 0 mm 5 m/S 768 mmHg 44%
    14:00 -14°C° 0 mm 5 m/S 769 mmHg 45%
    15:00 -14°C° 0 mm 5 m/S 769 mmHg 46%
    16:00 -14°C° 0 mm 5 m/S 770 mmHg 47%
    17:00 -14°C° 0 mm 5 m/S 770 mmHg 49%
    18:00 -15°C° 0 mm 5 m/S 770 mmHg 51%
    19:00 -15°C° 0 mm 4 m/S 770 mmHg 54%
    20:00 -15°C° 0 mm 4 m/S 771 mmHg 56%
    21:00 -14°C° 0 mm 3 m/S 771 mmHg 57%
    22:00 -14°C° 0 mm 3 m/S 771 mmHg 59%
    23:00 -14°C° 0 mm 3 m/S 772 mmHg 61%

    21 November, Donnerstag

    Zeit Temperatur Niederschläge Wind Luftdruck Luftfeuchtigkeit
    00:00 -14°C° 0 mm 3 m/S 772 mmHg 63%
    01:00 -13°C° 0 mm 2 m/S 772 mmHg 65%
    02:00 -13°C° 0 mm 2 m/S 772 mmHg 67%
    03:00 -13°C° 0 mm 2 m/S 772 mmHg 69%
    04:00 -13°C° 0 mm 2 m/S 772 mmHg 71%
    05:00 -13°C° 0 mm 2 m/S 772 mmHg 72%
    06:00 -13°C° 0 mm 2 m/S 772 mmHg 73%
    07:00 -13°C° 0 mm 2 m/S 772 mmHg 74%
    08:00 -13°C° 0 mm 2 m/S 772 mmHg 69%
    09:00 -12°C° 0 mm 2 m/S 773 mmHg 65%
    10:00 -10°C° 0 mm 2 m/S 773 mmHg 61%
    11:00 -9°C° 0 mm 2 m/S 773 mmHg 56%
    12:00 -9°C° 0 mm 2 m/S 772 mmHg 50%
    13:00 -8°C° 0 mm 2 m/S 772 mmHg 45%
    14:00 -8°C° 0 mm 2 m/S 772 mmHg 46%
    15:00 -8°C° 0 mm 2 m/S 772 mmHg 47%
    16:00 -8°C° 0 mm 2 m/S 771 mmHg 48%
    17:00 -9°C° 0 mm 2 m/S 771 mmHg 50%
    18:00 -10°C° 0 mm 3 m/S 771 mmHg 53%
    19:00 -10°C° 0 mm 3 m/S 771 mmHg 56%
    20:00 -10°C° 0 mm 3 m/S 771 mmHg 56%
    21:00 -12°C° 0 mm 3 m/S 771 mmHg 57%
    22:00 -12°C° 0 mm 3 m/S 771 mmHg 57%
    23:00 -12°C° 0 mm 3 m/S 771 mmHg 57%

    22 November, Freitag

    Zeit Temperatur Niederschläge Wind Luftdruck Luftfeuchtigkeit
    00:00 -12°C° 0 mm 3 m/S 770 mmHg 57%
    01:00 -12°C° 0 mm 3 m/S 770 mmHg 58%
    02:00 -12°C° 0 mm 3 m/S 770 mmHg 58%
    03:00 -12°C° 0 mm 3 m/S 770 mmHg 59%
    04:00 -12°C° 0 mm 3 m/S 770 mmHg 59%
    05:00 -12°C° 0 mm 3 m/S 770 mmHg 60%
    06:00 -12°C° 0 mm 3 m/S 770 mmHg 60%
    07:00 -12°C° 0 mm 3 m/S 769 mmHg 60%
    08:00 -12°C° 0 mm 3 m/S 769 mmHg 56%
    09:00 -10°C° 0 mm 3 m/S 769 mmHg 52%
    10:00 -9°C° 0 mm 3 m/S 770 mmHg 47%
    11:00 -8°C° 0 mm 3 m/S 769 mmHg 44%
    12:00 -7°C° 0 mm 3 m/S 769 mmHg 41%
    13:00 -6°C° 0 mm 3 m/S 769 mmHg 38%
    14:00 -7°C° 0 mm 3 m/S 769 mmHg 41%
    15:00 -6°C° 0 mm 2 m/S 769 mmHg 43%
    16:00 -6°C° 0 mm 2 m/S 768 mmHg 46%
    17:00 -7°C° 0 mm 2 m/S 768 mmHg 50%
    18:00 -7°C° 0 mm 2 m/S 768 mmHg 53%
    19:00 -8°C° 0 mm 2 m/S 768 mmHg 57%
    20:00 -8°C° 0 mm 2 m/S 768 mmHg 58%
    21:00 -9°C° 0 mm 2 m/S 768 mmHg 59%
    22:00 -9°C° 0 mm 2 m/S 768 mmHg 61%
    23:00 -9°C° 0 mm 2 m/S 768 mmHg 61%

    23 November, Samstag

    Zeit Temperatur Niederschläge Wind Luftdruck Luftfeuchtigkeit
    00:00 -9°C° 0 mm 2 m/S 768 mmHg 61%
    01:00 -9°C° 0 mm 2 m/S 768 mmHg 61%
    02:00 -9°C° 0 mm 2 m/S 767 mmHg 61%
    03:00 -9°C° 0 mm 2 m/S 767 mmHg 61%
    04:00 -10°C° 0 mm 2 m/S 767 mmHg 61%
    05:00 -10°C° 0 mm 2 m/S 767 mmHg 61%
    06:00 -10°C° 0 mm 2 m/S 766 mmHg 61%
    07:00 -10°C° 0 mm 2 m/S 766 mmHg 60%
    08:00 -9°C° 0 mm 2 m/S 766 mmHg 56%
    09:00 -8°C° 0 mm 2 m/S 766 mmHg 53%
    10:00 -8°C° 0 mm 3 m/S 766 mmHg 49%
    11:00 -7°C° 0 mm 3 m/S 766 mmHg 45%
    12:00 -6°C° 0 mm 3 m/S 766 mmHg 42%
    13:00 -5°C° 0 mm 3 m/S 766 mmHg 38%
    14:00 -6°C° 0 mm 3 m/S 765 mmHg 41%
    15:00 -6°C° 0 mm 3 m/S 765 mmHg 43%
    16:00 -7°C° 0 mm 3 m/S 765 mmHg 45%
    17:00 -7°C° 0 mm 3 m/S 765 mmHg 48%
    18:00 -8°C° 0 mm 3 m/S 764 mmHg 51%
    19:00 -8°C° 0 mm 3 m/S 764 mmHg 54%
    20:00 -9°C° 0 mm 3 m/S 764 mmHg 55%
    21:00 -9°C° 0 mm 3 m/S 764 mmHg 57%
    22:00 -9°C° 0 mm 3 m/S 764 mmHg 58%
    23:00 -9°C° 0 mm 3 m/S 764 mmHg 59%
    Mehr zeigen